User: anonymous   Login
Location: Arcusa
(42.3167°N, 0.0833°W)
Time: 01:56:20
(UTC+00:00)
Language:

Cosmos 1437 - Orbit

View from above orbital plane
View from above orbital plane
View from above satellite
View from above satellite

Ground track
Ground track

The orbit data is extracted from the following two-line orbital elements,

1 13770U 83003A   20090.91859583 +.00007082 +00000-0 +76182-4 0  9996
2 13770 081.1586 327.3799 0002284 201.3319 158.7840 15.63519267044651
Epoch (UTC): 30 March 2020 22:02:46
Eccentricity: 0.0002284
inclination: 81.1586°
perigee height: 376 km
apogee height: 379 km
right ascension of ascending node: 327.3799°
argument of perigee: 201.3319°
revolutions per day: 15.63519267
mean anomaly at epoch: 158.7840°
orbit number at epoch: 4465

The dashed part of the orbit path shows where the satellite is in the earth's shadow,  

DLR